WMT5BE LROP-LEZL

Flight info

Callsign WMT5BE
Flight time 3h 34m
Altitude 34000
Route LROP/08L N0448F340 POLU1K POLUN DCT ANASA DCT SOSEK DCT KATTI/N0445F330 DCT GOKMI/N0447F350 DCT SUPUX DCT KUPIM DCT SUXER DCT RIPAL DCT MORSS DCT MHN DCT CDP DCT OLUTO DCT AKAMU DCT EPAMA DCT IXUPA DCT ARGOR DCT VLC DCT SERRA DCT ASTRO DCT POBOS DCT XEBAR DCT YES DCT BLN BLN3E LEZL/27
Aircraft A321/M-SDE3FGHIRWY/LB1

Departure

Time 2026-04-25 08:12
Airport Bucharest Henri Coandă International Airport (LROP)

Arrival

Time 2026-04-25 11:47
Airport Seville Airport (LEZL)
Time Latitude Longitude Altitude Speed Heading
2026-04-25 07:20 44.56912 26.09201 321 ft 0 kts 174°
2026-04-25 08:05 44.56911 26.09201 320 ft 0 kts 174°
2026-04-25 08:06 44.56907 26.09202 320 ft 1 kts 174°
2026-04-25 08:06 44.56897 26.09203 320 ft 2 kts 174°
2026-04-25 08:06 44.56883 26.09205 319 ft 2 kts 174°
2026-04-25 08:06 44.56873 26.09196 320 ft 2 kts 224°
2026-04-25 08:07 44.56864 26.09183 320 ft 2 kts 225°
2026-04-25 08:07 44.56856 26.09161 320 ft 3 kts 249°
2026-04-25 08:07 44.56849 26.09110 320 ft 8 kts 261°
2026-04-25 08:07 44.56841 26.09016 320 ft 11 kts 264°
2026-04-25 08:08 44.56834 26.08907 319 ft 12 kts 265°
2026-04-25 08:08 44.56825 26.08790 320 ft 12 kts 263°
2026-04-25 08:08 44.56816 26.08668 320 ft 13 kts 268°
2026-04-25 08:08 44.56839 26.08570 320 ft 11 kts 322°
2026-04-25 08:09 44.56911 26.08550 320 ft 11 kts 354°
2026-04-25 08:09 44.56989 26.08541 320 ft 12 kts 354°
2026-04-25 08:09 44.57071 26.08529 320 ft 12 kts 354°
2026-04-25 08:09 44.57159 26.08516 319 ft 13 kts 353°
2026-04-25 08:10 44.57250 26.08501 320 ft 13 kts 355°
2026-04-25 08:10 44.57345 26.08489 320 ft 14 kts 354°
2026-04-25 08:10 44.57444 26.08473 320 ft 15 kts 353°
2026-04-25 08:10 44.57546 26.08458 321 ft 15 kts 354°
2026-04-25 08:11 44.57636 26.08457 323 ft 12 kts 19°
2026-04-25 08:11 44.57672 26.08545 323 ft 11 kts 81°
2026-04-25 08:11 44.57682 26.08673 322 ft 24 kts 86°
2026-04-25 08:11 44.57724 26.09243 318 ft 91 kts 84°
2026-04-25 08:12 44.57812 26.10377 323 ft 140 kts 84°
2026-04-25 08:12 44.57936 26.11924 350 ft 175 kts 83°
2026-04-25 08:12 44.58019 26.13003 865 ft 156 kts 85°
2026-04-25 08:12 44.58114 26.14457 1623 ft 154 kts 86°
2026-04-25 08:13 44.58233 26.16660 2118 ft 184 kts 86°
2026-04-25 08:13 44.58281 26.17911 2269 ft 196 kts 95°
2026-04-25 08:13 44.57408 26.20148 2559 ft 212 kts 143°
2026-04-25 08:14 44.54604 26.19972 3238 ft 226 kts 220°
2026-04-25 08:14 44.53954 26.18742 3346 ft 242 kts 241°
2026-04-25 08:14 44.53230 26.16562 3838 ft 248 kts 245°
2026-04-25 08:14 44.52559 26.14332 4429 ft 251 kts 247°
2026-04-25 08:15 44.51881 26.12028 4824 ft 264 kts 247°
2026-04-25 08:15 44.51171 26.09633 5436 ft 268 kts 247°
2026-04-25 08:15 44.50446 26.07229 6171 ft 269 kts 248°
2026-04-25 08:15 44.49710 26.04812 6888 ft 270 kts 248°
2026-04-25 08:16 44.48964 26.02387 7560 ft 272 kts 248°
2026-04-25 08:16 44.48209 25.99946 8232 ft 274 kts 248°
2026-04-25 08:16 44.47445 25.97492 8922 ft 275 kts 248°
2026-04-25 08:16 44.46679 25.95024 9622 ft 277 kts 248°
2026-04-25 08:17 44.45908 25.92547 10265 ft 280 kts 248°
2026-04-25 08:17 44.45103 25.89963 10437 ft 300 kts 248°
2026-04-25 08:17 44.44241 25.87203 10571 ft 320 kts 248°
2026-04-25 08:17 44.43325 25.84273 10755 ft 335 kts 248°
2026-04-25 08:18 44.42381 25.81258 11236 ft 341 kts 247°
2026-04-25 08:18 44.41423 25.78199 11774 ft 345 kts 247°
2026-04-25 08:18 44.40456 25.75114 12333 ft 348 kts 247°
2026-04-25 08:18 44.39482 25.72004 12876 ft 351 kts 247°
2026-04-25 08:19 44.38494 25.68855 13452 ft 355 kts 248°
2026-04-25 08:19 44.37498 25.65682 13983 ft 358 kts 247°
2026-04-25 08:19 44.36492 25.62479 14477 ft 361 kts 247°
2026-04-25 08:19 44.35478 25.59260 14945 ft 364 kts 247°
2026-04-25 08:20 44.34448 25.56003 15456 ft 367 kts 247°
2026-04-25 08:20 44.33409 25.52731 15937 ft 370 kts 247°
2026-04-25 08:20 44.32362 25.49427 16441 ft 373 kts 248°
2026-04-25 08:20 44.31309 25.46101 16915 ft 377 kts 248°
2026-04-25 08:21 44.30246 25.42741 17404 ft 380 kts 248°
2026-04-25 08:21 44.29170 25.39352 17878 ft 383 kts 248°
2026-04-25 08:21 44.28087 25.35943 18351 ft 386 kts 248°
2026-04-25 08:21 44.27003 25.32544 18758 ft 389 kts 248°
2026-04-25 08:22 44.25885 25.29041 19189 ft 392 kts 248°
2026-04-25 08:22 44.24822 25.25586 19615 ft 393 kts 252°
2026-04-25 08:22 44.24114 25.21856 20037 ft 394 kts 262°
2026-04-25 08:22 44.23912 25.18104 20458 ft 394 kts 273°
2026-04-25 08:23 44.24059 25.14282 20871 ft 396 kts 275°
2026-04-25 08:23 44.24215 25.10433 21293 ft 398 kts 274°
2026-04-25 08:23 44.24366 25.06567 21696 ft 401 kts 274°
2026-04-25 08:23 44.24509 25.02841 22080 ft 403 kts 274°
2026-04-25 08:24 44.24656 24.98930 22466 ft 405 kts 274°
2026-04-25 08:24 44.24801 24.95000 22845 ft 407 kts 274°
2026-04-25 08:24 44.24944 24.91046 23228 ft 410 kts 274°
2026-04-25 08:24 44.25088 24.87067 23595 ft 412 kts 274°
2026-04-25 08:25 44.25232 24.83070 23908 ft 414 kts 275°
2026-04-25 08:25 44.25377 24.79045 24219 ft 416 kts 274°
2026-04-25 08:25 44.25521 24.75010 24518 ft 418 kts 275°
2026-04-25 08:25 44.25666 24.70950 24820 ft 420 kts 275°
2026-04-25 08:26 44.25812 24.66877 25114 ft 422 kts 275°
2026-04-25 08:26 44.25957 24.62778 25405 ft 424 kts 275°
2026-04-25 08:26 44.26098 24.58661 25694 ft 426 kts 275°
2026-04-25 08:26 44.26237 24.54531 25988 ft 428 kts 275°
2026-04-25 08:27 44.26376 24.50376 26278 ft 430 kts 275°
2026-04-25 08:27 44.26513 24.46210 26562 ft 432 kts 275°
2026-04-25 08:27 44.26649 24.42015 26840 ft 434 kts 275°
2026-04-25 08:27 44.26785 24.37805 27121 ft 435 kts 275°
2026-04-25 08:28 44.26919 24.33578 27401 ft 437 kts 275°
2026-04-25 08:28 44.27051 24.29329 27673 ft 439 kts 275°
2026-04-25 08:28 44.27181 24.25063 27930 ft 441 kts 275°
2026-04-25 08:28 44.27314 24.20780 28183 ft 443 kts 275°
2026-04-25 08:29 44.27448 24.16484 28445 ft 445 kts 275°
2026-04-25 08:29 44.27581 24.12161 28700 ft 447 kts 275°
2026-04-25 08:29 44.27713 24.07829 28953 ft 448 kts 275°
2026-04-25 08:29 44.27809 24.04606 29157 ft 450 kts 275°
2026-04-25 08:30 44.27928 24.00680 29374 ft 451 kts 275°
2026-04-25 08:30 44.28056 23.96299 29673 ft 452 kts 275°
2026-04-25 08:30 44.28177 23.91925 30051 ft 451 kts 275°
2026-04-25 08:30 44.28293 23.87553 30369 ft 450 kts 275°
2026-04-25 08:31 44.28408 23.83189 30681 ft 449 kts 275°
2026-04-25 08:31 44.28525 23.78840 30985 ft 449 kts 275°
2026-04-25 08:31 44.28643 23.74495 31293 ft 448 kts 275°
2026-04-25 08:31 44.28759 23.70155 31606 ft 447 kts 275°
2026-04-25 08:32 44.28870 23.65884 31901 ft 446 kts 275°
2026-04-25 08:32 44.28980 23.61565 32200 ft 445 kts 275°
2026-04-25 08:32 44.29090 23.57258 32498 ft 444 kts 275°
2026-04-25 08:32 44.29200 23.52965 32788 ft 443 kts 275°
2026-04-25 08:33 44.29307 23.48671 33074 ft 442 kts 275°
2026-04-25 08:33 44.29411 23.44389 33355 ft 441 kts 275°
2026-04-25 08:33 44.29514 23.40104 33637 ft 440 kts 276°
2026-04-25 08:33 44.29614 23.35833 33913 ft 440 kts 275°
2026-04-25 08:34 44.29709 23.31573 34166 ft 439 kts 275°
2026-04-25 08:34 44.29804 23.27306 34378 ft 439 kts 275°
2026-04-25 08:34 44.29898 23.23058 34597 ft 438 kts 275°
2026-04-25 08:34 44.29992 23.18810 34798 ft 438 kts 275°
2026-04-25 08:35 44.30084 23.14558 34996 ft 438 kts 275°
2026-04-25 08:35 44.30267 23.06059 35086 ft 438 kts 275°
2026-04-25 08:36 44.30443 22.97560 35090 ft 438 kts 275°
2026-04-25 08:36 44.30610 22.89057 35085 ft 438 kts 275°
2026-04-25 08:37 44.30769 22.80550 35083 ft 438 kts 275°
2026-04-25 08:37 44.30916 22.72047 35090 ft 438 kts 275°
2026-04-25 08:38 44.31060 22.63537 35085 ft 438 kts 275°
2026-04-25 08:38 44.30640 22.55028 35084 ft 445 kts 260°
2026-04-25 08:39 44.28417 22.46956 35084 ft 452 kts 249°
2026-04-25 08:39 44.25824 22.38979 35085 ft 452 kts 249°
2026-04-25 08:40 44.23244 22.30983 35082 ft 452 kts 249°
2026-04-25 08:40 44.20655 22.22995 35084 ft 452 kts 249°
2026-04-25 08:41 44.18050 22.15018 35085 ft 452 kts 249°
2026-04-25 08:41 44.15430 22.07042 35088 ft 453 kts 249°
2026-04-25 08:42 44.12811 21.99077 35086 ft 453 kts 249°
2026-04-25 08:42 44.10182 21.91114 35094 ft 453 kts 249°
2026-04-25 08:43 44.07552 21.83153 35098 ft 453 kts 249°
2026-04-25 08:43 44.04918 21.75193 35102 ft 453 kts 249°
2026-04-25 08:44 44.02266 21.67228 35104 ft 454 kts 249°
2026-04-25 08:44 43.99611 21.59267 35102 ft 454 kts 249°
2026-04-25 08:45 43.96943 21.51308 35100 ft 455 kts 248°
2026-04-25 08:45 43.94271 21.43358 35106 ft 455 kts 248°
2026-04-25 08:46 43.91596 21.35405 35105 ft 455 kts 248°
2026-04-25 08:46 43.88914 21.27452 35112 ft 455 kts 248°
2026-04-25 08:47 43.86217 21.19500 35117 ft 456 kts 248°
2026-04-25 08:47 43.83509 21.11551 35106 ft 456 kts 248°
2026-04-25 08:48 43.80800 21.03593 35118 ft 456 kts 248°
2026-04-25 08:48 43.78127 20.95631 35121 ft 455 kts 252°
2026-04-25 08:49 43.76282 20.87903 35116 ft 453 kts 255°
2026-04-25 08:49 43.74343 20.79605 35114 ft 454 kts 255°
2026-04-25 08:50 43.72386 20.71311 35110 ft 454 kts 255°
2026-04-25 08:50 43.70430 20.63017 35115 ft 454 kts 255°
2026-04-25 08:51 43.68469 20.54732 35116 ft 454 kts 255°
2026-04-25 08:51 43.66499 20.46447 35117 ft 454 kts 255°
2026-04-25 08:52 43.64515 20.38157 35112 ft 455 kts 254°
2026-04-25 08:52 43.62525 20.29864 35124 ft 455 kts 254°
2026-04-25 08:53 43.60530 20.21567 35134 ft 456 kts 254°
2026-04-25 08:53 43.58529 20.13268 35141 ft 456 kts 254°
2026-04-25 08:54 43.56642 20.05464 35136 ft 456 kts 254°
2026-04-25 08:54 43.54633 19.97177 35142 ft 456 kts 254°
2026-04-25 08:55 43.52613 19.88887 35141 ft 456 kts 253°
2026-04-25 08:55 43.50578 19.80603 35140 ft 457 kts 253°
2026-04-25 08:56 43.48544 19.72312 35143 ft 457 kts 253°
2026-04-25 08:56 43.46497 19.64016 35144 ft 458 kts 253°
2026-04-25 08:57 43.44459 19.55774 35145 ft 458 kts 253°
2026-04-25 08:57 43.42405 19.47489 35145 ft 458 kts 253°
2026-04-25 08:58 43.40346 19.39191 35142 ft 458 kts 253°
2026-04-25 08:58 43.38610 19.32260 35145 ft 458 kts 253°
2026-04-25 08:59 43.36527 19.23976 35144 ft 458 kts 253°
2026-04-25 08:59 43.34438 19.15692 35141 ft 459 kts 253°
2026-04-25 09:00 43.32344 19.07416 35141 ft 459 kts 252°
2026-04-25 09:00 43.30250 18.99145 35138 ft 459 kts 253°
2026-04-25 09:01 43.28168 18.90923 35135 ft 459 kts 252°
2026-04-25 09:01 43.26059 18.82656 35133 ft 459 kts 252°
2026-04-25 09:02 43.23936 18.74392 35131 ft 459 kts 252°
2026-04-25 09:02 43.21813 18.66140 35121 ft 459 kts 252°
2026-04-25 09:03 43.19681 18.57873 35114 ft 459 kts 252°
2026-04-25 09:03 43.17540 18.49617 35112 ft 460 kts 252°
2026-04-25 09:04 43.15393 18.41364 35113 ft 460 kts 252°
2026-04-25 09:04 43.13243 18.33107 35103 ft 460 kts 252°
2026-04-25 09:05 43.11093 18.24857 35097 ft 460 kts 251°
2026-04-25 09:05 43.09093 18.17248 35096 ft 461 kts 251°
2026-04-25 09:06 43.06915 18.08999 35091 ft 461 kts 251°
2026-04-25 09:06 43.04744 18.00758 35091 ft 461 kts 251°
2026-04-25 09:07 43.02570 17.92518 35088 ft 461 kts 251°
2026-04-25 09:07 43.00380 17.84286 35090 ft 461 kts 251°
2026-04-25 09:08 42.98175 17.76059 35089 ft 461 kts 251°
2026-04-25 09:08 42.95971 17.67828 35090 ft 462 kts 251°
2026-04-25 09:09 42.93761 17.59604 35088 ft 462 kts 250°
2026-04-25 09:09 42.91550 17.51382 35096 ft 461 kts 250°
2026-04-25 09:10 42.89325 17.43169 35091 ft 462 kts 250°
2026-04-25 09:10 42.87247 17.35507 35091 ft 462 kts 250°
2026-04-25 09:11 42.83896 17.23189 35094 ft 462 kts 250°
2026-04-25 09:11 42.81645 17.14989 35095 ft 462 kts 250°
2026-04-25 09:12 42.79390 17.06798 35096 ft 462 kts 250°
2026-04-25 09:12 42.77123 16.98604 35101 ft 462 kts 250°
2026-04-25 09:13 42.74867 16.90415 35098 ft 462 kts 250°
2026-04-25 09:13 42.72602 16.82230 35095 ft 462 kts 250°
2026-04-25 09:14 42.70328 16.74052 35103 ft 462 kts 249°
2026-04-25 09:14 42.68047 16.65867 35100 ft 463 kts 249°
2026-04-25 09:15 42.65754 16.57701 35097 ft 463 kts 249°
2026-04-25 09:15 42.63452 16.49525 35097 ft 463 kts 249°
2026-04-25 09:16 42.61152 16.41359 35100 ft 463 kts 249°
2026-04-25 09:16 42.58846 16.33205 35101 ft 463 kts 249°
2026-04-25 09:17 42.55375 16.20983 35097 ft 463 kts 249°
2026-04-25 09:18 42.53054 16.12837 35099 ft 463 kts 249°
2026-04-25 09:18 42.50727 16.04700 35101 ft 463 kts 249°
2026-04-25 09:19 42.48658 15.96426 35100 ft 464 kts 253°
2026-04-25 09:19 42.46904 15.88030 35098 ft 464 kts 255°
2026-04-25 09:20 42.45129 15.79624 35100 ft 464 kts 253°
2026-04-25 09:20 42.43260 15.71328 35103 ft 464 kts 252°
2026-04-25 09:21 42.41332 15.62986 35099 ft 464 kts 252°
2026-04-25 09:21 42.39419 15.54653 35100 ft 464 kts 252°
2026-04-25 09:22 42.37511 15.46307 35105 ft 464 kts 252°
2026-04-25 09:22 42.35598 15.37965 35103 ft 464 kts 252°
2026-04-25 09:23 42.33674 15.29641 35103 ft 464 kts 252°
2026-04-25 09:23 42.31742 15.21321 35100 ft 464 kts 252°
2026-04-25 09:24 42.29810 15.13002 35103 ft 464 kts 252°
2026-04-25 09:24 42.27877 15.04682 35102 ft 464 kts 252°
2026-04-25 09:25 42.25929 14.96362 35099 ft 464 kts 252°
2026-04-25 09:25 42.23975 14.88055 35099 ft 464 kts 252°
2026-04-25 09:26 42.22022 14.79809 35096 ft 464 kts 252°
2026-04-25 09:26 42.20057 14.71509 35098 ft 465 kts 252°
2026-04-25 09:27 42.18084 14.63200 35099 ft 465 kts 251°
2026-04-25 09:27 42.16105 14.54910 35100 ft 465 kts 251°
2026-04-25 09:28 42.14119 14.46612 35097 ft 465 kts 251°
2026-04-25 09:28 42.12128 14.38326 35105 ft 465 kts 251°
2026-04-25 09:29 42.10125 14.30046 35099 ft 465 kts 251°
2026-04-25 09:29 42.08120 14.21775 35102 ft 465 kts 251°
2026-04-25 09:30 42.06110 14.13507 35105 ft 465 kts 251°
2026-04-25 09:30 42.04095 14.05239 35105 ft 464 kts 251°
2026-04-25 09:31 42.02082 13.96991 35110 ft 465 kts 251°
2026-04-25 09:31 42.00051 13.88735 35110 ft 464 kts 251°
2026-04-25 09:32 41.98016 13.80497 35115 ft 464 kts 251°
2026-04-25 09:32 41.95981 13.72268 35116 ft 464 kts 251°
2026-04-25 09:33 41.93944 13.64042 35118 ft 464 kts 251°
2026-04-25 09:33 41.91897 13.55828 35117 ft 463 kts 250°
2026-04-25 09:34 41.89865 13.47681 35116 ft 463 kts 251°
2026-04-25 09:34 41.87814 13.39494 35121 ft 463 kts 250°
2026-04-25 09:35 41.85749 13.31310 35120 ft 463 kts 250°
2026-04-25 09:35 41.83680 13.23142 35117 ft 462 kts 250°
2026-04-25 09:36 41.81608 13.14977 35117 ft 462 kts 250°
2026-04-25 09:36 41.79539 13.06819 35118 ft 462 kts 250°
2026-04-25 09:37 41.77462 12.98681 35120 ft 462 kts 250°
2026-04-25 09:37 41.75375 12.90540 35132 ft 462 kts 250°
2026-04-25 09:38 41.73289 12.82412 35130 ft 461 kts 250°
2026-04-25 09:38 41.71199 12.74297 35133 ft 461 kts 250°
2026-04-25 09:39 41.69121 12.66238 35135 ft 461 kts 250°
2026-04-25 09:39 41.67014 12.58139 35109 ft 461 kts 250°
2026-04-25 09:40 41.63846 12.45991 35112 ft 461 kts 250°
2026-04-25 09:40 41.61728 12.37902 35111 ft 461 kts 250°
2026-04-25 09:41 41.59767 12.30418 35113 ft 461 kts 250°
2026-04-25 09:41 41.57643 12.22347 35118 ft 461 kts 250°
2026-04-25 09:42 41.55509 12.14281 35122 ft 461 kts 249°
2026-04-25 09:42 41.53380 12.06225 35127 ft 461 kts 249°
2026-04-25 09:43 41.51237 11.98164 35138 ft 460 kts 249°
2026-04-25 09:43 41.49444 11.91473 35140 ft 460 kts 249°
2026-04-25 09:44 41.47286 11.83432 35152 ft 460 kts 249°
2026-04-25 09:44 41.45133 11.75389 35144 ft 460 kts 249°
2026-04-25 09:45 41.42974 11.67358 35143 ft 461 kts 249°
2026-04-25 09:45 41.40795 11.59329 35147 ft 461 kts 249°
2026-04-25 09:46 41.38759 11.51819 35149 ft 460 kts 249°
2026-04-25 09:46 41.36568 11.43745 35148 ft 460 kts 249°
2026-04-25 09:47 41.34401 11.35786 35153 ft 461 kts 249°
2026-04-25 09:47 41.32209 11.27780 35155 ft 461 kts 249°
2026-04-25 09:48 41.30009 11.19782 35160 ft 461 kts 249°
2026-04-25 09:48 41.27798 11.11784 35158 ft 460 kts 249°
2026-04-25 09:49 41.25591 11.03791 35155 ft 460 kts 249°
2026-04-25 09:49 41.23385 10.95812 35161 ft 460 kts 249°
2026-04-25 09:50 41.21172 10.87833 35157 ft 460 kts 249°
2026-04-25 09:50 41.18944 10.79869 35157 ft 460 kts 249°
2026-04-25 09:51 41.16844 10.72398 35156 ft 460 kts 249°
2026-04-25 09:51 41.14611 10.64439 35162 ft 460 kts 249°
2026-04-25 09:52 41.12373 10.56486 35164 ft 460 kts 248°
2026-04-25 09:52 41.10130 10.48545 35159 ft 460 kts 249°
2026-04-25 09:53 41.07886 10.40610 35162 ft 459 kts 248°
2026-04-25 09:53 41.05628 10.32693 35165 ft 459 kts 248°
2026-04-25 09:54 41.03377 10.24781 35163 ft 459 kts 249°
2026-04-25 09:54 41.01128 10.16885 35169 ft 458 kts 249°
2026-04-25 09:55 40.98887 10.09057 35161 ft 457 kts 248°
2026-04-25 09:55 40.96622 10.01199 35157 ft 457 kts 248°
2026-04-25 09:56 40.94354 9.93334 35156 ft 457 kts 249°
2026-04-25 09:56 40.92084 9.85490 35151 ft 457 kts 249°
2026-04-25 09:57 40.89801 9.77653 35140 ft 457 kts 249°
2026-04-25 09:57 40.87519 9.69817 35143 ft 457 kts 249°
2026-04-25 09:58 40.85234 9.61981 35141 ft 457 kts 249°
2026-04-25 09:58 40.82951 9.54155 35139 ft 457 kts 249°
2026-04-25 09:59 40.80649 9.46330 35136 ft 457 kts 248°
2026-04-25 09:59 40.78341 9.38506 35139 ft 457 kts 249°
2026-04-25 10:00 40.76023 9.30682 35146 ft 458 kts 248°
2026-04-25 10:00 40.73701 9.22868 35150 ft 458 kts 249°
2026-04-25 10:01 40.71395 9.15100 35149 ft 458 kts 249°
2026-04-25 10:01 40.69071 9.07288 35143 ft 458 kts 249°
2026-04-25 10:02 40.66733 8.99472 35150 ft 458 kts 249°
2026-04-25 10:02 40.64393 8.91672 35148 ft 458 kts 249°
2026-04-25 10:03 40.62044 8.83861 35154 ft 459 kts 249°
2026-04-25 10:03 40.59685 8.76057 35154 ft 459 kts 249°
2026-04-25 10:04 40.57324 8.68260 35148 ft 459 kts 249°
2026-04-25 10:04 40.54966 8.60465 35147 ft 459 kts 249°
2026-04-25 10:05 40.52599 8.52677 35141 ft 459 kts 249°
2026-04-25 10:05 40.50217 8.44903 35145 ft 458 kts 249°
2026-04-25 10:06 40.47833 8.37132 35145 ft 458 kts 249°
2026-04-25 10:06 40.45447 8.29374 35144 ft 458 kts 249°
2026-04-25 10:07 40.43680 8.21389 35146 ft 455 kts 264°
2026-04-25 10:07 40.43202 8.13106 35151 ft 454 kts 268°
2026-04-25 10:08 40.42749 8.04841 35155 ft 454 kts 267°
2026-04-25 10:08 40.42056 7.96596 35162 ft 455 kts 262°
2026-04-25 10:09 40.41031 7.88446 35165 ft 455 kts 262°
2026-04-25 10:09 40.39987 7.80260 35166 ft 455 kts 262°
2026-04-25 10:10 40.38938 7.72085 35166 ft 454 kts 262°
2026-04-25 10:10 40.37890 7.63902 35171 ft 454 kts 262°
2026-04-25 10:11 40.36834 7.55732 35168 ft 454 kts 262°
2026-04-25 10:11 40.35777 7.47575 35170 ft 454 kts 262°
2026-04-25 10:12 40.34722 7.39426 35170 ft 453 kts 262°
2026-04-25 10:13 40.33112 7.27213 35172 ft 453 kts 262°
2026-04-25 10:13 40.32035 7.19084 35174 ft 453 kts 262°
2026-04-25 10:14 40.30960 7.10969 35173 ft 452 kts 262°
2026-04-25 10:14 40.29885 7.02906 35170 ft 452 kts 262°
2026-04-25 10:15 40.28798 6.94793 35174 ft 451 kts 262°
2026-04-25 10:15 40.27704 6.86697 35172 ft 451 kts 261°
2026-04-25 10:16 40.26605 6.78618 35175 ft 451 kts 262°
2026-04-25 10:16 40.25507 6.70547 35176 ft 450 kts 261°
2026-04-25 10:17 40.24402 6.62477 35173 ft 450 kts 261°
2026-04-25 10:17 40.23283 6.54412 35171 ft 450 kts 261°
2026-04-25 10:18 40.22159 6.46364 35171 ft 450 kts 261°
2026-04-25 10:18 40.21036 6.38309 35168 ft 449 kts 261°
2026-04-25 10:19 40.19913 6.30268 35172 ft 449 kts 261°
2026-04-25 10:19 40.18779 6.22228 35170 ft 449 kts 261°
2026-04-25 10:20 40.17640 6.14202 35171 ft 449 kts 261°
2026-04-25 10:20 40.16502 6.06219 35168 ft 449 kts 261°
2026-04-25 10:21 40.15358 5.98201 35172 ft 448 kts 261°
2026-04-25 10:21 40.14208 5.90183 35171 ft 448 kts 261°
2026-04-25 10:22 40.13059 5.82185 35169 ft 448 kts 261°
2026-04-25 10:22 40.11934 5.74182 35171 ft 448 kts 261°
2026-04-25 10:23 40.10811 5.66179 35170 ft 448 kts 261°
2026-04-25 10:23 40.09678 5.58192 35166 ft 447 kts 261°
2026-04-25 10:24 40.08534 5.50204 35173 ft 447 kts 261°
2026-04-25 10:24 40.07383 5.42229 35163 ft 447 kts 261°
2026-04-25 10:25 40.06234 5.34248 35174 ft 447 kts 261°
2026-04-25 10:25 40.05080 5.26284 35167 ft 447 kts 261°
2026-04-25 10:26 40.03915 5.18321 35175 ft 447 kts 261°
2026-04-25 10:26 40.02746 5.10365 35170 ft 446 kts 261°
2026-04-25 10:27 40.01571 5.02420 35172 ft 446 kts 261°
2026-04-25 10:27 40.00597 4.95815 35167 ft 446 kts 261°
2026-04-25 10:28 39.99422 4.87876 35164 ft 446 kts 261°
2026-04-25 10:28 39.98232 4.79940 35165 ft 446 kts 261°
2026-04-25 10:29 39.96908 4.72032 35165 ft 447 kts 258°
2026-04-25 10:29 39.95275 4.64212 35166 ft 447 kts 256°
2026-04-25 10:30 39.93579 4.56422 35163 ft 447 kts 256°
2026-04-25 10:30 39.91935 4.48616 35166 ft 446 kts 257°
2026-04-25 10:31 39.90336 4.40803 35163 ft 446 kts 257°
2026-04-25 10:31 39.88735 4.33002 35165 ft 446 kts 256°
2026-04-25 10:32 39.87118 4.25210 35163 ft 446 kts 256°
2026-04-25 10:32 39.85486 4.17424 35164 ft 445 kts 256°
2026-04-25 10:33 39.83863 4.09657 35166 ft 445 kts 256°
2026-04-25 10:33 39.82238 4.01893 35163 ft 444 kts 256°
2026-04-25 10:34 39.80604 3.94148 35162 ft 444 kts 256°
2026-04-25 10:34 39.78965 3.86394 35165 ft 444 kts 256°
2026-04-25 10:35 39.77328 3.78663 35161 ft 444 kts 256°
2026-04-25 10:35 39.75679 3.70933 35163 ft 444 kts 256°
2026-04-25 10:36 39.74027 3.63213 35161 ft 444 kts 256°
2026-04-25 10:36 39.72380 3.55541 35160 ft 443 kts 255°
2026-04-25 10:37 39.70722 3.47831 35157 ft 443 kts 255°
2026-04-25 10:37 39.69636 3.39935 35161 ft 441 kts 268°
2026-04-25 10:38 39.69348 3.32029 35155 ft 441 kts 268°
2026-04-25 10:38 39.69041 3.24075 35155 ft 441 kts 268°
2026-04-25 10:39 39.68727 3.16114 35153 ft 441 kts 268°
2026-04-25 10:39 39.68406 3.08160 35151 ft 441 kts 268°
2026-04-25 10:40 39.68087 3.00195 35147 ft 442 kts 268°
2026-04-25 10:40 39.67768 2.92232 35143 ft 442 kts 267°
2026-04-25 10:41 39.67429 2.84272 35139 ft 442 kts 267°
2026-04-25 10:41 39.67091 2.76302 35137 ft 442 kts 267°
2026-04-25 10:42 39.66750 2.68323 35138 ft 443 kts 267°
2026-04-25 10:42 39.66396 2.60335 35138 ft 443 kts 266°
2026-04-25 10:43 39.66032 2.52357 35137 ft 443 kts 266°
2026-04-25 10:43 39.65660 2.44379 35134 ft 443 kts 266°
2026-04-25 10:44 39.65298 2.36453 35138 ft 443 kts 266°
2026-04-25 10:44 39.64931 2.28466 35141 ft 444 kts 266°
2026-04-25 10:45 39.64555 2.20467 35150 ft 444 kts 266°
2026-04-25 10:45 39.64170 2.12447 35146 ft 445 kts 266°
2026-04-25 10:46 39.63783 2.04432 35145 ft 445 kts 266°
2026-04-25 10:46 39.63390 1.96415 35149 ft 445 kts 266°
2026-04-25 10:47 39.62986 1.88395 35148 ft 445 kts 266°
2026-04-25 10:47 39.62571 1.80375 35149 ft 445 kts 265°
2026-04-25 10:48 39.62156 1.72363 35144 ft 445 kts 265°
2026-04-25 10:48 39.61738 1.64344 35143 ft 445 kts 265°
2026-04-25 10:49 39.61312 1.56330 35146 ft 445 kts 265°
2026-04-25 10:49 39.60876 1.48314 35144 ft 445 kts 265°
2026-04-25 10:50 39.60439 1.40303 35144 ft 445 kts 265°
2026-04-25 10:50 39.60004 1.32292 35140 ft 445 kts 265°
2026-04-25 10:51 39.59554 1.24277 35145 ft 445 kts 265°
2026-04-25 10:51 39.59105 1.16271 35146 ft 445 kts 265°
2026-04-25 10:52 39.58643 1.08253 35147 ft 446 kts 265°
2026-04-25 10:52 39.58179 1.00296 35146 ft 446 kts 264°
2026-04-25 10:53 39.57708 0.92229 35146 ft 446 kts 264°
2026-04-25 10:53 39.57241 0.84276 35147 ft 446 kts 264°
2026-04-25 10:54 39.56761 0.76262 35145 ft 446 kts 264°
2026-04-25 10:54 39.56273 0.68251 35145 ft 446 kts 264°
2026-04-25 10:55 39.55780 0.60238 35145 ft 445 kts 264°
2026-04-25 10:55 39.55289 0.52236 35150 ft 445 kts 264°
2026-04-25 10:56 39.54789 0.44241 35145 ft 445 kts 264°
2026-04-25 10:56 39.54279 0.36252 35143 ft 445 kts 263°
2026-04-25 10:57 39.53765 0.28258 35141 ft 445 kts 264°
2026-04-25 10:57 39.53249 0.20267 35141 ft 445 kts 263°
2026-04-25 10:58 39.52726 0.12277 35140 ft 445 kts 263°
2026-04-25 10:58 39.52192 0.04284 35137 ft 445 kts 263°
2026-04-25 10:59 39.51654 -0.03707 35136 ft 445 kts 263°
2026-04-25 10:59 39.51117 -0.11694 35137 ft 445 kts 263°
2026-04-25 11:00 39.50602 -0.19303 35138 ft 445 kts 263°
2026-04-25 11:00 39.50051 -0.27281 35138 ft 445 kts 263°
2026-04-25 11:01 39.49503 -0.35103 35139 ft 444 kts 263°
2026-04-25 11:01 39.48943 -0.42624 35137 ft 443 kts 259°
2026-04-25 11:02 39.47413 -0.49282 35137 ft 439 kts 243°
2026-04-25 11:02 39.44140 -0.55866 35147 ft 436 kts 231°
2026-04-25 11:03 39.40479 -0.62119 35133 ft 435 kts 231°
2026-04-25 11:03 39.36821 -0.68350 35137 ft 435 kts 231°
2026-04-25 11:04 39.33162 -0.74567 35140 ft 435 kts 231°
2026-04-25 11:04 39.29497 -0.80780 35140 ft 434 kts 230°
2026-04-25 11:05 39.25836 -0.86976 35138 ft 434 kts 230°
2026-04-25 11:05 39.22172 -0.93164 35137 ft 434 kts 230°
2026-04-25 11:06 39.18502 -0.99366 35140 ft 435 kts 230°
2026-04-25 11:06 39.14847 -1.05514 35135 ft 436 kts 230°
2026-04-25 11:07 39.11150 -1.11715 35135 ft 436 kts 230°
2026-04-25 11:07 39.07455 -1.17906 35135 ft 437 kts 230°
2026-04-25 11:08 39.03750 -1.24111 35139 ft 438 kts 229°
2026-04-25 11:08 39.00030 -1.30323 35145 ft 438 kts 229°
2026-04-25 11:09 38.96311 -1.36530 35140 ft 439 kts 229°
2026-04-25 11:09 38.92581 -1.42743 35144 ft 439 kts 229°
2026-04-25 11:10 38.89752 -1.48155 35146 ft 444 kts 243°
2026-04-25 11:10 38.87276 -1.55443 35154 ft 446 kts 244°
2026-04-25 11:11 38.84840 -1.62753 35156 ft 446 kts 244°
2026-04-25 11:11 38.82392 -1.70066 35155 ft 446 kts 243°
2026-04-25 11:12 38.79929 -1.77355 35160 ft 445 kts 243°
2026-04-25 11:12 38.77452 -1.84629 35159 ft 445 kts 243°
2026-04-25 11:13 38.74977 -1.91895 35162 ft 444 kts 243°
2026-04-25 11:13 38.72514 -1.99144 35161 ft 444 kts 243°
2026-04-25 11:14 38.70049 -2.06384 35162 ft 443 kts 243°
2026-04-25 11:14 38.67583 -2.13603 35158 ft 443 kts 243°
2026-04-25 11:15 38.65105 -2.20808 35160 ft 442 kts 243°
2026-04-25 11:15 38.62632 -2.28008 35152 ft 442 kts 243°
2026-04-25 11:16 38.58912 -2.38813 35145 ft 443 kts 243°
2026-04-25 11:16 38.56412 -2.46001 35138 ft 443 kts 243°
2026-04-25 11:17 38.53926 -2.53154 35123 ft 443 kts 243°
2026-04-25 11:17 38.51428 -2.60358 35114 ft 444 kts 243°
2026-04-25 11:18 38.48920 -2.67567 35112 ft 444 kts 243°
2026-04-25 11:18 38.46406 -2.74774 35103 ft 444 kts 242°
2026-04-25 11:19 38.43882 -2.81970 35097 ft 445 kts 242°
2026-04-25 11:19 38.41351 -2.89165 35094 ft 445 kts 242°
2026-04-25 11:20 38.38819 -2.96359 35091 ft 445 kts 242°
2026-04-25 11:20 38.36277 -3.03573 35087 ft 446 kts 242°
2026-04-25 11:21 38.33728 -3.10776 35087 ft 446 kts 242°
2026-04-25 11:21 38.31174 -3.17975 35084 ft 446 kts 242°
2026-04-25 11:22 38.29046 -3.23969 35085 ft 447 kts 242°
2026-04-25 11:22 38.26064 -3.32346 35081 ft 447 kts 242°
2026-04-25 11:23 38.23491 -3.39560 35082 ft 448 kts 242°
2026-04-25 11:23 38.20907 -3.46762 35083 ft 448 kts 242°
2026-04-25 11:24 38.18317 -3.53975 35080 ft 449 kts 242°
2026-04-25 11:24 38.15725 -3.61202 35081 ft 450 kts 244°
2026-04-25 11:25 38.13915 -3.68856 35077 ft 454 kts 252°
2026-04-25 11:25 38.13102 -3.72737 34886 ft 455 kts 252°
2026-04-25 11:25 38.12279 -3.76635 34271 ft 457 kts 251°
2026-04-25 11:26 38.11450 -3.80537 33593 ft 458 kts 251°
2026-04-25 11:26 38.10614 -3.84455 32854 ft 460 kts 253°
2026-04-25 11:26 38.09777 -3.88374 32221 ft 461 kts 253°
2026-04-25 11:26 38.08940 -3.92303 31604 ft 461 kts 253°
2026-04-25 11:27 38.08103 -3.96227 30995 ft 460 kts 254°
2026-04-25 11:27 38.07267 -4.00146 30432 ft 460 kts 254°
2026-04-25 11:27 38.06433 -4.04048 29862 ft 458 kts 254°
2026-04-25 11:27 38.05881 -4.06628 29455 ft 456 kts 254°
2026-04-25 11:28 38.04781 -4.11745 28724 ft 452 kts 254°
2026-04-25 11:28 38.03953 -4.15574 28199 ft 448 kts 254°
2026-04-25 11:28 38.03135 -4.19361 27721 ft 443 kts 254°
2026-04-25 11:28 38.02325 -4.23116 27243 ft 439 kts 254°
2026-04-25 11:29 38.01519 -4.26839 26731 ft 436 kts 254°
2026-04-25 11:29 38.00719 -4.30529 26230 ft 433 kts 254°
2026-04-25 11:29 37.99922 -4.34197 25741 ft 430 kts 253°
2026-04-25 11:29 37.99132 -4.37837 25301 ft 426 kts 253°
2026-04-25 11:30 37.98348 -4.41439 24874 ft 422 kts 253°
2026-04-25 11:30 37.97570 -4.45007 24454 ft 419 kts 253°
2026-04-25 11:30 37.96793 -4.48560 24045 ft 416 kts 253°
2026-04-25 11:30 37.96020 -4.52081 23625 ft 414 kts 253°
2026-04-25 11:31 37.95250 -4.55581 23126 ft 411 kts 253°
2026-04-25 11:31 37.94481 -4.59061 22712 ft 408 kts 253°
2026-04-25 11:31 37.93722 -4.62503 22362 ft 403 kts 253°
2026-04-25 11:31 37.92976 -4.65897 22018 ft 397 kts 253°
2026-04-25 11:32 37.92243 -4.69241 21663 ft 392 kts 254°
2026-04-25 11:32 37.91516 -4.72561 21254 ft 389 kts 254°
2026-04-25 11:32 37.90792 -4.75858 20733 ft 389 kts 254°
2026-04-25 11:32 37.90062 -4.79157 20194 ft 389 kts 254°
2026-04-25 11:33 37.89330 -4.82451 19662 ft 389 kts 254°
2026-04-25 11:33 37.88594 -4.85749 19144 ft 389 kts 254°
2026-04-25 11:33 37.87856 -4.89044 18629 ft 389 kts 254°
2026-04-25 11:33 37.87118 -4.92336 18086 ft 389 kts 254°
2026-04-25 11:34 37.86383 -4.95622 17501 ft 388 kts 254°
2026-04-25 11:34 37.85651 -4.98907 16929 ft 387 kts 254°
2026-04-25 11:34 37.84922 -5.02179 16370 ft 386 kts 254°
2026-04-25 11:34 37.84203 -5.05400 15829 ft 385 kts 254°
2026-04-25 11:35 37.83473 -5.08655 15291 ft 384 kts 254°
2026-04-25 11:35 37.82743 -5.11900 14762 ft 382 kts 254°
2026-04-25 11:35 37.82015 -5.15129 14237 ft 381 kts 253°
2026-04-25 11:35 37.81293 -5.18334 13703 ft 379 kts 253°
2026-04-25 11:36 37.80569 -5.21530 13120 ft 377 kts 253°
2026-04-25 11:36 37.79850 -5.24710 12584 ft 374 kts 253°
2026-04-25 11:36 37.79142 -5.27839 12187 ft 367 kts 253°
2026-04-25 11:36 37.78448 -5.30909 11814 ft 360 kts 253°
2026-04-25 11:37 37.77763 -5.33935 11451 ft 358 kts 253°
2026-04-25 11:37 37.77022 -5.36948 11117 ft 360 kts 247°
2026-04-25 11:37 37.75761 -5.39644 10791 ft 353 kts 230°
2026-04-25 11:37 37.74036 -5.41772 10474 ft 344 kts 220°
2026-04-25 11:38 37.72261 -5.43755 10160 ft 337 kts 220°
2026-04-25 11:38 37.70518 -5.45703 9850 ft 331 kts 220°
2026-04-25 11:38 37.68820 -5.47602 9581 ft 323 kts 220°
2026-04-25 11:38 37.67162 -5.49461 9327 ft 315 kts 220°
2026-04-25 11:39 37.65441 -5.51114 9063 ft 307 kts 208°
2026-04-25 11:39 37.63511 -5.52165 8797 ft 299 kts 195°
2026-04-25 11:39 37.61497 -5.52919 8216 ft 306 kts 195°
2026-04-25 11:39 37.59421 -5.53689 7477 ft 314 kts 195°
2026-04-25 11:40 37.57348 -5.54457 6797 ft 306 kts 195°
2026-04-25 11:40 37.55368 -5.55194 6206 ft 295 kts 195°
2026-04-25 11:40 37.53406 -5.55926 5589 ft 286 kts 195°
2026-04-25 11:40 37.51545 -5.56619 5000 ft 279 kts 195°
2026-04-25 11:41 37.49714 -5.57302 4502 ft 269 kts 195°
2026-04-25 11:41 37.47960 -5.57956 4088 ft 256 kts 195°
2026-04-25 11:41 37.46293 -5.58574 3878 ft 244 kts 195°
2026-04-25 11:41 37.44711 -5.59202 3667 ft 232 kts 202°
2026-04-25 11:42 37.43398 -5.60253 3534 ft 217 kts 221°
2026-04-25 11:42 37.42489 -5.61661 3399 ft 201 kts 239°
2026-04-25 11:42 37.41983 -5.63233 3232 ft 188 kts 256°
2026-04-25 11:42 37.41842 -5.64823 3099 ft 179 kts 271°
2026-04-25 11:43 37.41842 -5.66375 3020 ft 177 kts 270°
2026-04-25 11:43 37.41840 -5.67910 3006 ft 175 kts 270°
2026-04-25 11:43 37.41838 -5.69449 2877 ft 175 kts 269°
2026-04-25 11:43 37.41836 -5.70980 2674 ft 174 kts 270°
2026-04-25 11:44 37.41833 -5.72495 2458 ft 173 kts 270°
2026-04-25 11:44 37.41830 -5.74009 2223 ft 173 kts 270°
2026-04-25 11:44 37.41828 -5.75515 2017 ft 172 kts 270°
2026-04-25 11:44 37.41825 -5.76965 1795 ft 163 kts 270°
2026-04-25 11:45 37.41822 -5.78382 1572 ft 161 kts 270°
2026-04-25 11:45 37.41819 -5.79785 1352 ft 160 kts 270°
2026-04-25 11:45 37.41816 -5.81179 1139 ft 159 kts 270°
2026-04-25 11:45 37.41812 -5.82563 922 ft 157 kts 270°
2026-04-25 11:46 37.41809 -5.83908 710 ft 155 kts 271°
2026-04-25 11:46 37.41806 -5.85265 507 ft 155 kts 271°
2026-04-25 11:46 37.41797 -5.86612 292 ft 154 kts 271°
2026-04-25 11:46 37.41791 -5.87939 121 ft 143 kts 274°
2026-04-25 11:47 37.41795 -5.89042 103 ft 105 kts 269°
2026-04-25 11:47 37.41793 -5.89616 98 ft 26 kts 269°
2026-04-25 11:47 37.41846 -5.89787 97 ft 15 kts 320°
2026-04-25 11:47 37.41944 -5.89853 97 ft 14 kts 337°
2026-04-25 11:48 37.42041 -5.89901 97 ft 13 kts 338°
2026-04-25 11:48 37.42104 -5.89935 95 ft 12 kts 352°
2026-04-25 11:48 37.42172 -5.89878 96 ft 13 kts 45°
2026-04-25 11:48 37.42198 -5.89843 94 ft 0 kts 47°
2026-04-25 11:49 37.42212 -5.89824 94 ft 6 kts 48°
2026-04-25 11:49 37.42246 -5.89788 94 ft 4 kts
2026-04-25 11:49 37.42263 -5.89797 94 ft 3 kts 332°
2026-04-25 11:49 37.42283 -5.89819 94 ft 4 kts 310°
2026-04-25 11:50 37.42301 -5.89839 95 ft 3 kts 317°
2026-04-25 11:50 37.42303 -5.89842 96 ft 0 kts 316°